Regional Weather Roundup
Issued by NWS

Home | Current Version | Previous Version | Text Only | Print | Product List | Glossary Off
Versions: 1 2 3 4 5 6 7 8 9 10 11 12 13 14 15 16 17 18 19 20 21 22 23 24 25 26 27 28 29 30 31 32 33 34 35 36 37 38 39 40 41 42 43 44 45 46 47 48 49 50

217
ASUS44 KMEG 131010
RWRTN
TENNESSEE HOURLY STATE WEATHER ROUNDUP
NATIONAL WEATHER SERVICE MEMPHIS TN
400 AM CST SAT FEB 13 2016

TNZ002-004-019-021-049-052-054-088>092-131100-
WEST TENNESSEE

CITY           SKY/WX    TMP DP  RH WIND       PRES   REMARKS
MEMPHIS INTL   PTCLDY    31  12  45 NE12      30.48R WCI  22
NWS MEMPHIS      N/A     28 N/A N/A MISG        N/A
JACKSON        CLEAR     25  14  63 N14       30.49R WCI  13
DYERSBURG      PTCLDY    25  10  54 N10       30.55R WCI  15
UNION CITY     CLEAR     21   9  58 N16       30.53R WCI   7
PARIS          CLEAR     19   9  63 N10       30.50R WCI   8
LEXINGTON      CLEAR     21  10  63 N7        30.46R WCI  13
$$

TNZ008-025-027-028-033-062-065-066-131100-
NORTH MIDDLE TENNESSEE

CITY           SKY/WX    TMP DP  RH WIND       PRES   REMARKS
NASHVILLE      CLEAR     24  10  55 NW12G21   30.45S WCI  13
CLARKSVILLE    CLEAR     21  11  65 N12       30.48S WCI   9
SMYRNA         PTCLDY    23  13  65 N10       30.46S WCI  12
COOKEVILLE     PTCLDY    21  12  68 N5        30.38R WCI  15
CROSSVILLE     CLOUDY    20   9  62 NW13      30.31R WCI   7
$$

TNZ061-075-076-078-094-096-097-131100-
SOUTH MIDDLE TENNESSEE

CITY           SKY/WX    TMP DP  RH WIND       PRES   REMARKS
FAYETTEVILLE   PTCLDY    25  14  63 N8G18     30.38S WCI  16
TULLAHOMA      CLEAR     21  10  63 N20       30.38R WCI   6
WINCHESTER     CLEAR     23  16  74 NW8       30.38R WCI  14
MCMINNVILLE    CLEAR     21  12  68 N10       30.39R WCI  10
COLUMBIA       CLEAR     23  18  80 N6        30.41S WCI  16
SHELBYVILLE    CLEAR     23  14  68 N8        30.42S WCI  14
$$

TNZ017-018-042-046-047-131100-
NORTHEAST TENNESSEE

CITY           SKY/WX    TMP DP  RH WIND       PRES   REMARKS
TRI CITIES     CLOUDY    23   9  55 W12       30.23R WCI  12
$$

TNZ012-013-036-069-073-074-131100-
CENTRAL EAST TENNESSEE

CITY           SKY/WX    TMP DP  RH WIND       PRES   REMARKS
KNOXVILLE      CLOUDY    26  12  55 N13       30.32R WCI  15
OAK RIDGE      CLOUDY    26  11  52 N8        30.35R WCI  18
GATLINBURG     CLOUDY    23  10  58 NW9       30.32R WCI  13
MORRISTOWN     CLOUDY    25   9  50 NW13      30.28R WCI  13
$$

TNZ083-085-099-131100-
SOUTHEAST TENNESSEE

CITY           SKY/WX    TMP DP  RH WIND       PRES   REMARKS
CHATTANOOGA    CLEAR     29  15  56 N14       30.35R WCI  18
$$

SKY/WX REPORTED AS FAIR MEANS FEW OR NO CLOUDS BELOW
12 THOUSAND FEET.





USA.gov is the U.S. government's official web portal to all federal, state and local government web resources and services.